OneWeb SL0192

operational
NORAD ID: 48222 Int'l Des: 2021-031 Owner: ONEWEBN Country: UK Constellation: oneweb
LEOCIRCULARPOLARONEWEB_TYPE

Über OneWeb SL0192

Beschreibung wird geladen...

Live-Position

3D-Globus wird geladen...

Nächste Überflüge

Höhenverlauf

Altitude vs Time

uPlot chart will show altitude changes over time

Zweizeiliger Elementsatz

1 48222U 21031N 25303.52053372 .00000010 00000-0 -74915-5 0 9998
2 48222 87.9004 335.4787 0001948 95.5893 264.5459 13.14504160218007
Epoch: 30. Okt. 2025 • Age: 21 hours

Aktueller Status

Höhe 1235.9 km
Geschwindigkeit 7.24 km/s
Subsatellitenpunkt -83.83°S, 125.81°E
Startdatum 25. Apr. 2021
Alter 4.5 years
Typ internet

Technische Details

Klassifizierung Payload
Masse 148.00 kg
Trockenmasse 140.00 kg
Gesamtmasse 148.00 kg
Länge 1.30 m
Durchmesser 1.00 m
Spannweite 5.00 m
Form Trapezoid+2 pan
Hersteller ONEWUS
Bus-Typ ARROW
Phasenstatus In Orbit
Besitzer/Staat ONEWEBN/UK

Große Konstellationen

Loading constellations...